Weather in Teplovka

Russia / Saratov Oblast     52°04′11″N   46°07′50″E
temp.,
°C
wind,
m/s
gust,
m/s
humid.,
%
clouds,
%
prec.,
mm/h
press.,
hPa
HPBL,
m
11 april, sun
sun1101:00+4n349699 0.0 102176
04:00+4n2398100 0.0 102276
07:00+4n3598100 0.0 1024138
10:00+8nne3590100 0.0 1024200
13:00+12ne4678100 0.0 1025425
16:00+15ne587099 0.0 1025354
19:00+12nne61183100 0.0 1026237
22:00+10ne61287100 0.0 1027225
12 april, mon
mon1201:00+10ene41187100 0.0 1027183
04:00+9ene358891 0.0 102883
07:00+8ene338514 0.0 102956
10:00+14e575829 0.0 1030360
13:00+19ese67435 0.0 1029904
16:00+20ese673886 0.0 10291444
19:00+16ese3857100 0.0 1029152
22:00+13e4116987 0.0 1030183
13 april, tue
tue1301:00+10e337467 0.0 103037
04:00+8ene227253 0.0 103020
07:00+7ene22737 0.0 103118
10:00+13ese46505 0.0 1030439
13:00+17ese56375 0.0 10291003
16:00+19se553288 0.0 10281417
19:00+16ese33450 0.0 102741
22:00+12e22560 0.0 102715
14 april, wed
wed1401:00+10e22660 0.0 102710
04:00+8ene227212 0.0 102710
07:00+8ene227589 0.0 102614
10:00+13ese4654100 0.0 1026383
13:00+18ese563992 0.0 1024973
16:00+19se453257 0.0 10231405
19:00+16ese334535 0.0 102240
22:00+12e225371 0.0 102215
15 april, thu
thu1501:00+10e225980 0.0 102110
04:00+9ene116567 0.0 102110
07:00+8e116899 0.0 102010
10:00+14ese345187 0.0 1020359
13:00+17se333850 0.0 1018989
16:00+18sse223299 0.0 10161424
19:00+16ene114184 0.0 101511
22:00+13ne114810 0.0 101410